Wind_Speed
11 11 11 11 11 10 10 10 10 9 8 7 7 7 6 5 5 5 5 4 4 4 4 5 4 4 4 4 5 5 5 5 6 7 8 8 8 8 8 8 9 9 8
11 11 11 12 11 10 10 10 10 9 8 7 7 7 6 5 5 5 5 5 5 5 5 5 6 5 5 5 6 5 6 6 7 8 9 9 9 9 9 8 9 9 9
12 11 11 12 11 10 10 11 9 9 9 8 7 7 6 6 6 6 6 5 5 6 6 6 6 6 6 6 6 6 7 7 7 8 9 9 9 10 9 9 10 11 10
12 12 12 12 11 10 10 9 9 9 9 8 8 8 7 7 7 7 7 7 6 6 7 7 7 7 7 7 7 7 8 9 8 9 9 10 10 10 10 11 11 12 12
12 13 13 12 12 11 10 10 10 10 9 9 10 9 8 8 8 8 8 8 7 7 8 8 8 9 9 9 10 10 10 10 10 10 10 10 11 11 11 12 12 13 14
14 13 14 13 13 12 12 11 11 11 11 11 11 11 10 10 9 9 9 9 9 9 9 10 10 11 11 11 11 11 11 12 12 11 11 11 11 12 13 13 14 14 15
14 14 14 14 14 13 13 13 13 13 12 12 12 12 12 12 11 11 10 10 11 10 10 11 11 11 12 12 13 13 13 12 12 12 12 12 13 13 14 15 16 16 16
16 15 14 14 14 14 14 14 14 14 14 14 14 14 14 13 13 13 13 13 12 12 12 13 13 13 14 14 14 15 15 14 14 14 14 14 14 15 15 16 17 17 17
18 17 16 17 16 15 15 15 15 15 15 16 16 15 15 15 15 15 15 15 15 14 14 14 14 15 15 16 16 16 16 16 16 16 16 16 16 17 17 17 18 18 18
19 20 20 20 18 17 16 16 16 17 17 17 17 16 17 17 16 17 17 18 18 17 17 17 17 17 17 16 16 16 16 16 17 17 18 18 18 19 19 19 20 20 20
20 21 21 21 20 20 19 18 18 18 18 18 18 17 18 18 18 18 19 19 19 20 19 19 19 19 19 18 18 17 17 18 18 18 19 19 19 20 20 20 21 22 22
22 21 22 22 21 21 20 19 19 19 18 18 19 19 19 19 20 20 20 21 21 21 21 21 21 20 20 20 20 20 20 20 20 21 21 21 21 21 22 22 22 23 23
25 24 23 23 22 21 22 21 21 20 20 20 19 20 20 20 20 20 21 22 22 21 22 22 22 22 22 22 22 22 22 22 23 23 23 23 23 23 22 22 23 24 24
26 24 24 23 23 23 23 23 23 22 22 22 21 21 21 21 21 21 22 22 23 23 23 23 23 23 23 23 24 25 24 25 24 24 24 24 23 23 23 24 24 25 25
26 25 24 24 24 24 24 25 25 25 24 23 23 22 22 22 22 22 22 23 24 24 25 24 24 24 24 25 25 25 26 25 25 24 24 24 24 24 25 25 26 26 26
27 25 25 25 25 25 25 25 25 25 25 25 24 24 23 23 23 24 24 24 25 25 26 25 26 26 26 26 26 26 26 26 26 26 26 26 25 26 26 27 27 27 27
27 26 25 26 26 26 26 26 25 25 26 26 26 25 25 25 25 25 25 25 25 26 26 27 27 27 27 27 27 27 27 27 27 27 27 27 27 27 28 28 29 28 28
28 28 27 27 27 27 26 27 26 26 26 26 27 27 27 26 27 27 27 27 27 27 28 28 28 28 28 29 29 28 28 28 28 28 28 29 29 30 30 30 29 30 30
29 28 28 28 28 27 27 27 26 27 27 27 27 28 28 28 28 28 28 28 28 28 28 29 29 29 29 29 29 29 29 29 29 29 29 30 31 31 31 31 31 31 31
29 28 28 29 29 28 28 28 28 28 29 29 28 29 29 29 29 28 28 28 29 29 29 29 29 30 30 30 30 29 30 31 31 31 32 32 32 32 33 33 32 32 32
29 29 29 29 29 29 29 29 30 30 30 29 29 30 29 29 29 29 29 28 29 29 29 29 29 30 30 29 30 30 31 32 32 33 33 33 33 33 33 34 34 34 33
29 30 30 30 29 30 29 30 30 30 30 30 30 30 30 30 30 30 30 29 29 29 29 29 29 30 31 31 32 32 32 32 32 33 33 33 33 33 34 34 34 34 34
29 29 29 29 30 31 31 30 30 30 29 29 30 29 30 31 31 30 30 29 29 29 30 31 31 31 31 32 32 32 33 34 34 33 33 33 34 34 34 35 34 33 33
29 29 29 30 31 31 31 31 31 30 30 28 29 30 31 31 31 31 30 30 30 30 30 31 31 32 32 32 33 33 33 34 34 34 34 35 34 33 34 32 31 32 32
30 30 30 30 31 31 31 32 32 31 30 30 30 30 30 30 30 31 31 31 31 32 32 33 33 32 32 33 33 34 34 34 34 34 34 33 33 33 32 32 31 31 31
29 30 31 31 32 32 32 32 31 31 30 30 30 30 30 30 31 31 31 31 32 33 34 33 33 32 32 32 32 32 32 32 33 33 33 33 33 33 32 32 31 31 31
Wind_Direction
335 335 334 332 334 336 339 336 335 334 336 338 338 340 337 337 335 330 328 330 321 314 310 320 315 306 304 306 304 292 287 288 290 294 295 294 301 300 302 304 302 304 302
333 331 330 326 325 328 328 329 329 329 326 327 329 334 330 327 328 330 327 322 321 316 309 307 310 312 306 302 301 301 295 293 294 294 291 289 293 296 298 298 297 300 303
333 330 327 324 321 320 321 324 326 327 323 322 322 322 325 320 314 316 316 314 313 311 307 304 300 298 296 298 303 306 306 306 305 298 290 290 293 291 290 295 297 297 301
330 329 327 323 321 319 318 318 319 324 323 319 315 310 312 313 307 302 300 300 297 299 300 302 300 296 292 292 296 300 300 301 303 299 294 292 292 297 294 294 296 298 299
325 324 323 322 319 315 313 311 313 315 315 315 313 308 303 304 305 300 300 299 298 300 301 297 294 295 295 295 295 293 296 298 298 296 295 295 294 295 295 296 296 298 299
316 317 316 317 315 312 308 306 306 305 305 304 306 304 300 299 297 295 294 291 292 297 300 300 296 296 296 297 295 295 295 297 296 295 295 295 293 293 292 293 295 297 299
308 308 311 316 313 309 307 302 303 301 299 298 297 296 294 294 292 290 289 290 294 298 299 299 296 296 295 296 295 295 296 298 296 293 293 295 292 291 290 288 289 292 296
303 305 306 310 310 307 304 300 298 299 296 294 292 292 291 289 287 284 284 287 289 291 293 296 294 292 291 292 294 293 296 298 295 292 292 293 293 292 293 291 288 288 291
299 299 300 301 302 303 301 299 294 294 293 292 291 288 287 286 284 283 282 284 287 289 289 291 291 290 290 291 291 290 293 294 295 291 290 288 290 290 291 291 291 291 291
294 295 295 297 299 299 298 296 296 294 291 290 289 286 283 283 283 282 282 282 282 284 286 287 288 288 289 290 290 289 289 290 291 289 289 288 287 288 288 288 287 288 290
293 294 293 294 295 295 294 293 294 294 293 292 291 288 284 282 283 282 282 282 281 281 282 283 285 286 288 289 289 287 288 289 289 288 289 291 287 286 287 286 286 286 287
292 291 291 291 292 290 290 290 291 292 291 291 290 287 284 282 282 281 280 279 280 279 279 281 282 285 288 288 287 286 287 287 288 289 288 288 288 286 286 285 285 286 286
290 290 289 288 288 287 288 284 287 290 290 289 289 287 284 282 282 280 279 279 279 280 280 280 281 283 284 285 286 287 286 286 288 288 287 286 287 288 289 288 288 287 287
286 287 288 287 286 285 285 286 285 289 290 290 292 291 287 284 282 281 281 279 279 279 281 280 280 281 282 283 285 286 287 285 285 286 286 286 286 287 289 289 290 289 287
284 285 286 286 285 285 283 284 286 286 286 288 291 293 289 286 285 283 282 280 280 280 281 281 281 283 284 284 285 287 289 285 283 285 286 286 286 287 288 290 291 290 290
282 283 284 286 284 283 283 283 285 286 285 286 288 289 289 288 286 284 283 282 281 282 282 282 283 284 285 284 285 287 289 287 286 286 285 283 284 286 288 289 290 291 291
280 284 285 285 284 282 281 280 281 283 284 285 287 286 286 286 286 286 283 281 281 281 282 284 285 284 284 283 284 285 286 286 285 286 286 284 285 287 288 289 289 290 291
281 283 282 282 282 282 281 280 280 281 282 283 284 286 286 284 285 284 284 281 279 280 281 283 283 284 283 283 282 280 281 282 282 283 284 284 284 286 288 288 289 288 289
280 281 280 281 281 280 280 280 279 279 280 281 282 285 286 286 284 283 282 282 281 280 281 282 283 283 283 282 281 279 279 280 281 283 284 285 285 286 287 287 288 288 288
278 279 280 281 281 279 279 279 278 278 279 280 281 283 284 284 283 282 280 281 282 281 282 282 282 282 283 282 281 280 279 281 281 282 284 285 286 287 289 289 287 287 288
278 279 280 281 281 279 278 278 278 278 279 279 280 281 282 282 283 284 282 281 282 282 282 281 282 283 282 281 280 281 279 281 282 282 283 285 286 287 287 287 286 286 286
276 279 279 279 279 279 280 280 279 280 279 278 278 279 281 281 281 282 282 281 282 283 283 283 282 284 284 282 282 282 281 282 283 283 283 284 285 285 286 286 285 284 285
275 277 278 278 278 280 282 283 283 282 280 278 278 279 280 281 282 282 281 282 282 283 284 285 285 285 285 284 283 282 281 282 282 283 284 284 284 285 286 288 287 287 287
278 279 279 280 281 281 282 283 284 284 282 281 280 279 280 280 281 280 281 281 282 284 285 286 287 287 286 285 285 283 282 282 283 284 284 284 284 286 287 287 287 286 286
274 276 278 279 282 282 283 284 284 283 282 281 280 280 280 281 281 281 281 281 282 284 284 285 286 286 286 287 287 286 285 284 284 284 284 284 282 284 284 284 284 284 285
277 275 277 279 281 282 284 284 285 284 283 281 280 280 281 282 281 281 281 282 282 283 284 285 285 285 286 287 289 288 287 286 285 284 283 282 282 283 283 283 282 282 282
Height
5910 5908 5907 5906 5905 5904 5903 5902 5901 5900 5899 5899 5899 5898 5898 5898 5898 5898 5898 5898 5898 5898 5899 5899 5898 5898 5898 5898 5898 5898 5898 5899 5899 5899 5899 5899 5898 5898 5897 5897 5897 5896 5896
5909 5908 5907 5905 5904 5904 5903 5902 5901 5900 5899 5899 5899 5899 5898 5898 5898 5898 5898 5898 5898 5898 5898 5898 5898 5898 5898 5898 5897 5897 5897 5897 5897 5897 5897 5897 5897 5896 5896 5895 5895 5895 5894
5908 5907 5906 5905 5904 5903 5902 5901 5900 5900 5899 5899 5898 5898 5898 5898 5898 5898 5898 5898 5897 5897 5897 5897 5897 5897 5897 5897 5896 5896 5896 5895 5895 5895 5895 5894 5895 5894 5894 5894 5893 5893 5892
5908 5907 5906 5904 5903 5902 5901 5901 5900 5899 5899 5898 5898 5898 5898 5897 5897 5897 5897 5897 5896 5896 5896 5896 5896 5896 5895 5895 5895 5895 5894 5894 5893 5893 5893 5893 5892 5892 5892 5892 5891 5890 5890
5908 5906 5905 5903 5902 5901 5900 5900 5899 5898 5898 5898 5897 5897 5897 5897 5896 5896 5896 5895 5895 5895 5894 5894 5894 5894 5894 5893 5893 5893 5892 5892 5891 5891 5890 5890 5890 5889 5889 5889 5888 5888 5887
5906 5905 5903 5902 5901 5900 5899 5898 5898 5897 5897 5896 5896 5895 5895 5895 5895 5894 5894 5894 5893 5893 5893 5892 5892 5892 5891 5891 5891 5890 5890 5889 5889 5888 5888 5887 5887 5887 5886 5886 5886 5885 5884
5904 5903 5901 5900 5899 5898 5897 5896 5896 5895 5895 5894 5894 5894 5893 5892 5892 5892 5892 5892 5891 5891 5890 5890 5890 5889 5889 5889 5888 5888 5887 5887 5886 5885 5885 5884 5884 5884 5883 5883 5882 5882 5881
5902 5900 5898 5897 5896 5895 5894 5894 5893 5893 5892 5892 5892 5891 5890 5890 5889 5889 5889 5889 5889 5888 5888 5888 5887 5887 5886 5886 5885 5885 5884 5883 5883 5882 5882 5881 5880 5880 5879 5879 5878 5878 5877
5898 5897 5896 5895 5893 5892 5891 5891 5890 5890 5889 5889 5888 5888 5887 5887 5886 5886 5886 5886 5886 5885 5885 5884 5884 5884 5883 5882 5882 5881 5880 5880 5879 5879 5878 5877 5877 5876 5875 5874 5874 5873 5872
5895 5894 5892 5891 5890 5889 5888 5888 5887 5887 5886 5885 5884 5884 5883 5883 5883 5883 5882 5882 5882 5882 5881 5881 5880 5880 5879 5878 5878 5877 5877 5876 5875 5874 5874 5873 5872 5872 5871 5870 5868 5867 5867
5890 5889 5888 5887 5886 5885 5884 5884 5883 5883 5882 5881 5880 5880 5879 5879 5879 5878 5878 5878 5878 5877 5877 5877 5876 5875 5874 5874 5873 5873 5872 5872 5871 5870 5869 5868 5867 5867 5866 5864 5863 5862 5861
5886 5885 5884 5882 5882 5881 5880 5879 5878 5878 5877 5876 5876 5875 5874 5874 5874 5874 5873 5873 5873 5872 5872 5871 5871 5871 5870 5870 5869 5868 5867 5867 5866 5865 5864 5863 5861 5861 5860 5858 5858 5857 5856
5881 5881 5879 5878 5876 5875 5875 5874 5873 5872 5872 5871 5870 5869 5869 5869 5868 5868 5868 5867 5867 5867 5866 5866 5865 5865 5865 5864 5864 5863 5862 5861 5860 5859 5858 5857 5855 5854 5853 5852 5851 5851 5850
5876 5875 5874 5873 5872 5871 5870 5869 5867 5867 5867 5866 5865 5864 5863 5863 5862 5862 5862 5861 5861 5861 5860 5859 5859 5859 5858 5858 5858 5856 5856 5855 5854 5852 5852 5851 5849 5848 5847 5846 5845 5844 5843
5869 5869 5868 5867 5866 5866 5865 5864 5863 5862 5861 5861 5860 5859 5858 5857 5856 5856 5855 5855 5855 5854 5854 5853 5853 5852 5851 5851 5850 5850 5849 5847 5846 5845 5845 5844 5843 5842 5841 5840 5839 5837 5836
5863 5863 5862 5861 5860 5859 5859 5858 5857 5856 5855 5854 5854 5853 5852 5851 5850 5850 5849 5849 5848 5848 5847 5846 5846 5845 5845 5844 5844 5843 5842 5841 5840 5839 5838 5838 5837 5836 5834 5833 5831 5830 5829
5856 5856 5855 5854 5854 5853 5852 5851 5850 5849 5849 5848 5847 5847 5846 5845 5844 5843 5842 5842 5841 5841 5840 5839 5839 5838 5837 5837 5836 5835 5834 5834 5833 5832 5832 5831 5830 5829 5827 5826 5824 5823 5822
5849 5849 5849 5847 5846 5846 5845 5844 5843 5843 5842 5842 5841 5840 5839 5838 5837 5836 5835 5834 5833 5833 5833 5832 5831 5830 5829 5829 5828 5828 5827 5826 5826 5825 5824 5824 5823 5821 5819 5818 5817 5816 5814
5842 5842 5841 5840 5839 5838 5838 5837 5836 5836 5835 5834 5834 5833 5831 5830 5829 5828 5827 5826 5825 5825 5825 5824 5823 5823 5821 5821 5820 5820 5819 5819 5818 5817 5816 5815 5815 5813 5812 5810 5809 5808 5806
5835 5834 5833 5832 5832 5831 5830 5829 5828 5828 5827 5826 5826 5825 5824 5822 5821 5820 5819 5818 5818 5817 5816 5816 5815 5814 5814 5813 5812 5811 5811 5810 5810 5809 5808 5807 5806 5805 5803 5802 5800 5799 5798
5827 5826 5825 5825 5824 5823 5822 5821 5820 5819 5818 5818 5817 5817 5815 5814 5813 5812 5811 5810 5810 5809 5808 5807 5807 5806 5805 5804 5803 5802 5802 5801 5801 5800 5799 5798 5797 5796 5794 5793 5791 5790 5788
5818 5819 5818 5817 5816 5815 5813 5813 5811 5810 5809 5809 5809 5808 5807 5806 5806 5805 5803 5802 5801 5801 5800 5799 5798 5798 5796 5795 5795 5794 5793 5792 5791 5791 5790 5789 5788 5786 5785 5783 5782 5780 5779
5811 5810 5810 5809 5808 5807 5807 5806 5804 5802 5801 5801 5800 5800 5799 5798 5797 5797 5796 5795 5793 5793 5792 5791 5790 5789 5788 5786 5785 5785 5784 5783 5782 5781 5781 5779 5778 5777 5776 5774 5772 5771 5770
5804 5802 5802 5802 5801 5800 5799 5798 5797 5795 5794 5793 5792 5791 5790 5790 5789 5788 5788 5787 5786 5785 5784 5782 5781 5780 5779 5777 5776 5775 5774 5774 5773 5772 5771 5770 5769 5768 5765 5765 5764 5763 5761
5797 5795 5795 5794 5793 5792 5790 5789 5788 5787 5785 5784 5783 5783 5782 5781 5781 5780 5779 5778 5778 5776 5775 5774 5773 5771 5770 5769 5767 5766 5766 5765 5764 5763 5762 5760 5759 5759 5758 5756 5756 5754 5753
5789 5788 5787 5786 5785 5784 5783 5781 5780 5778 5777 5776 5775 5774 5773 5772 5772 5771 5771 5769 5769 5768 5766 5765 5764 5762 5761 5760 5759 5757 5756 5755 5754 5753 5752 5751 5750 5750 5749 5748 5747 5746 5744